Simultaneous Nadir Overpasses (SNOs) Predictions

Prediction of SNOs between GOES-16 and NOAA-19 Satellite Orbit:

Table of predicted SNOs for the next 14.0 days since TLE Epoch: 10/26/2018
Index Date Time (GOES-16) GOES-16 Lat,Lon NOAA-19 Lat,Lon Distance(km) Time Diff (sec)
1 10/28/2018 21:32:10 -0.01, -75.26 -0.44, -77.14 215.04 80
2 10/29/2018 21:17:55 -0.00, -75.26 0.24, -74.32 108.43 80
3 10/30/2018 21:08:01 -0.00, -75.27 0.87, -71.49 431.91 21
4 11/01/2018 09:41:50 0.00, -75.30 0.96, -79.35 463.03 80
5 11/02/2018 09:30:16 0.00, -75.31 0.28, -76.53 139.17 80
6 11/03/2018 09:16:01 0.00, -75.33 -0.39, -73.71 184.93 80
7 11/05/2018 21:39:55 0.00, -75.36 -0.81, -78.73 386.34 80
8 11/06/2018 21:28:20 0.00, -75.38 -0.13, -75.92 61.55 80
9 11/07/2018 21:14:06 0.00, -75.40 0.56, -73.10 263.38 80




NCC Satellite Simultaneous Nadir Overpasses (SNOs) Prediction Service
